Time,TemperatureF,DewpointF,PressureIn,WindDirection,WindDirectionDegrees,WindSpeedMPH,WindSpeedGustMPH,Humidity,HourlyPrecipIn,Conditions,Clouds,dailyrainin,SoftwareType,DateUTC
2013-02-22 00:07:00,27.4,25.0,30.03,WNW,287,4.0,9.0,92,0.00,,,0.00,weatherlink.com 1.10,2013-02-22 05:07:00,
2013-02-22 00:22:00,27.7,26.0,30.02,WNW,285,5.0,7.0,93,0.00,,,0.00,weatherlink.com 1.10,2013-02-22 05:22:00,
2013-02-22 00:37:00,27.8,26.0,30.02,NW,314,3.0,9.0,93,0.00,,,0.00,weatherlink.com 1.10,2013-02-22 05:37:00,
2013-02-22 00:52:00,28.2,27.0,29.99,ENE,65,3.0,8.0,93,0.00,,,0.00,weatherlink.com 1.10,2013-02-22 05:52:00,
2013-02-22 01:07:00,28.6,27.0,29.98,NNE,26,2.0,11.0,93,0.00,,,0.00,weatherlink.com 1.10,2013-02-22 06:07:00,
2013-02-22 01:22:00,28.6,27.0,29.98,WNW,287,3.0,9.0,93,0.00,,,0.00,weatherlink.com 1.10,2013-02-22 06:22:00,
2013-02-22 01:37:00,28.7,27.0,29.96,ESE,105,2.0,8.0,93,0.00,,,0.00,weatherlink.com 1.10,2013-02-22 06:37:00,
2013-02-22 01:52:00,28.8,27.0,29.94,WSW,250,6.0,10.0,93,0.00,,,0.00,weatherlink.com 1.10,2013-02-22 06:52:00,
2013-02-22 02:07:00,29.0,27.0,29.93,NW,309,1.0,9.0,93,0.00,,,0.00,weatherlink.com 1.10,2013-02-22 07:07:00,
2013-02-22 02:22:00,29.0,27.0,29.91,NW,307,2.0,9.0,93,0.00,,,0.00,weatherlink.com 1.10,2013-02-22 07:22:00,
2013-02-22 02:37:00,29.2,28.0,29.92,WNW,300,2.0,9.0,93,0.00,,,0.00,weatherlink.com 1.10,2013-02-22 07:37:00,
2013-02-22 02:52:00,29.4,28.0,29.91,ENE,72,5.0,9.0,93,0.00,,,0.00,weatherlink.com 1.10,2013-02-22 07:52:00,
2013-02-22 03:07:00,29.9,28.0,29.90,WNW,290,3.0,5.0,94,0.00,,,0.00,weatherlink.com 1.10,2013-02-22 08:07:00,
2013-02-22 03:22:00,30.1,29.0,29.89,North,359,2.0,8.0,94,0.00,,,0.00,weatherlink.com 1.10,2013-02-22 08:22:00,
2013-02-22 03:37:00,30.1,29.0,29.89,North,350,4.0,7.0,94,0.00,,,0.00,weatherlink.com 1.10,2013-02-22 08:37:00,
2013-02-22 03:52:00,30.0,29.0,29.89,ENE,63,2.0,6.0,94,0.00,,,0.00,weatherlink.com 1.10,2013-02-22 08:52:00,
2013-02-22 04:07:00,30.2,29.0,29.89,WNW,297,3.0,7.0,94,0.00,,,0.00,weatherlink.com 1.10,2013-02-22 09:07:00,
2013-02-22 04:22:00,30.5,29.0,29.89,East,89,2.0,6.0,95,0.00,,,0.00,weatherlink.com 1.10,2013-02-22 09:22:00,
2013-02-22 04:38:00,30.7,30.0,29.88,NE,46,1.0,6.0,95,0.00,,,0.00,weatherlink.com 1.10,2013-02-22 09:38:00,
2013-02-22 04:52:00,30.8,30.0,29.88,NE,46,2.0,5.0,95,0.00,,,0.00,weatherlink.com 1.10,2013-02-22 09:52:00,
2013-02-22 05:07:00,30.9,30.0,29.87,NE,39,2.0,7.0,95,0.00,,,0.00,weatherlink.com 1.10,2013-02-22 10:07:00,
2013-02-22 05:23:00,31.0,30.0,29.87,NNW,334,1.0,4.0,95,0.00,,,0.00,weatherlink.com 1.10,2013-02-22 10:23:00,
2013-02-22 05:38:00,31.0,30.0,29.87,NE,38,2.0,3.0,95,0.00,,,0.00,weatherlink.com 1.10,2013-02-22 10:38:00,
2013-02-22 05:53:00,31.1,30.0,29.87,East,79,1.0,6.0,95,0.00,,,0.00,weatherlink.com 1.10,2013-02-22 10:53:00,
2013-02-22 06:08:00,31.2,30.0,29.87,NE,51,1.0,5.0,95,0.00,,,0.00,weatherlink.com 1.10,2013-02-22 11:08:00,
2013-02-22 06:23:00,31.4,30.0,29.87,NE,44,4.0,4.0,95,0.00,,,0.00,weatherlink.com 1.10,2013-02-22 11:23:00,
2013-02-22 06:38:00,31.5,30.0,29.87,ENE,72,1.0,5.0,95,0.00,,,0.00,weatherlink.com 1.10,2013-02-22 11:38:00,
2013-02-22 06:53:00,31.6,30.0,29.87,NE,46,1.0,4.0,95,0.00,,,0.00,weatherlink.com 1.10,2013-02-22 11:53:00,
2013-02-22 07:08:00,31.7,31.0,29.87,NE,39,1.0,4.0,95,0.00,,,0.00,weatherlink.com 1.10,2013-02-22 12:08:00,
2013-02-22 07:23:00,31.8,31.0,29.87,ENE,67,0.0,4.0,95,0.00,,,0.00,weatherlink.com 1.10,2013-02-22 12:23:00,
2013-02-22 07:38:00,31.9,31.0,29.88,NE,42,2.0,3.0,95,0.00,,,0.00,weatherlink.com 1.10,2013-02-22 12:38:00,
2013-02-22 07:53:00,32.1,31.0,29.87,NE,39,2.0,4.0,95,0.00,,,0.00,weatherlink.com 1.10,2013-02-22 12:53:00,
2013-02-22 08:08:00,32.2,31.0,29.87,ENE,71,0.0,7.0,96,0.00,,,0.00,weatherlink.com 1.10,2013-02-22 13:08:00,
2013-02-22 08:23:00,32.3,31.0,29.87,NNE,30,2.0,3.0,96,0.00,,,0.00,weatherlink.com 1.10,2013-02-22 13:23:00,
2013-02-22 08:38:00,32.5,32.0,29.88,ENE,67,1.0,1.0,96,0.00,,,0.00,weatherlink.com 1.10,2013-02-22 13:38:00,
2013-02-22 08:53:00,32.6,32.0,29.88,NE,46,2.0,2.0,96,0.00,,,0.00,weatherlink.com 1.10,2013-02-22 13:53:00,
2013-02-22 09:08:00,32.8,32.0,29.88,ENE,63,0.0,2.0,96,0.00,,,0.00,weatherlink.com 1.10,2013-02-22 14:08:00,
2013-02-22 09:23:00,32.9,32.0,29.88,ENE,57,1.0,1.0,96,0.00,,,0.00,weatherlink.com 1.10,2013-02-22 14:23:00,
2013-02-22 09:38:00,33.0,32.0,29.87,ENE,60,1.0,3.0,96,0.00,,,0.00,weatherlink.com 1.10,2013-02-22 14:38:00,
2013-02-22 09:53:00,33.2,32.0,29.88,NE,51,0.0,2.0,96,0.00,,,0.00,weatherlink.com 1.10,2013-02-22 14:53:00,
2013-02-22 10:08:00,33.3,32.0,29.88,ENE,58,1.0,3.0,96,0.00,,,0.00,weatherlink.com 1.10,2013-02-22 15:08:00,
2013-02-22 10:23:00,33.4,32.0,29.88,ENE,58,0.0,4.0,96,0.00,,,0.00,weatherlink.com 1.10,2013-02-22 15:23:00,
2013-02-22 10:39:00,33.6,33.0,29.89,NE,54,2.0,3.0,96,0.00,,,0.00,weatherlink.com 1.10,2013-02-22 15:39:00,
2013-02-22 10:53:00,33.7,33.0,29.89,ENE,59,0.0,6.0,96,0.00,,,0.00,weatherlink.com 1.10,2013-02-22 15:53:00,
2013-02-22 11:08:00,33.9,33.0,29.89,NE,36,5.0,5.0,96,0.00,,,0.00,weatherlink.com 1.10,2013-02-22 16:08:00,
2013-02-22 11:23:00,34.0,33.0,29.89,ENE,63,1.0,7.0,96,0.00,,,0.00,weatherlink.com 1.10,2013-02-22 16:23:00,
2013-02-22 11:38:00,34.0,33.0,29.90,NNE,32,2.0,6.0,96,0.00,,,0.00,weatherlink.com 1.10,2013-02-22 16:38:00,
2013-02-22 12:08:00,34.3,33.0,29.91,East,94,1.0,7.0,96,0.00,,,0.00,weatherlink.com 1.10,2013-02-22 17:08:00,
2013-02-22 12:23:00,34.3,33.0,29.91,NE,35,2.0,5.0,96,0.00,,,0.00,weatherlink.com 1.10,2013-02-22 17:23:00,
2013-02-22 12:38:00,34.2,33.0,29.92,ENE,67,0.0,6.0,96,0.00,,,0.00,weatherlink.com 1.10,2013-02-22 17:38:00,
2013-02-22 12:53:00,34.2,33.0,29.92,ENE,57,1.0,6.0,96,0.00,,,0.00,weatherlink.com 1.10,2013-02-22 17:53:00,
2013-02-22 13:08:00,34.2,33.0,29.91,ENE,75,0.0,4.0,96,0.00,,,0.00,weatherlink.com 1.10,2013-02-22 18:08:00,
2013-02-22 13:23:00,34.0,33.0,29.91,ENE,70,2.0,7.0,96,0.00,,,0.00,weatherlink.com 1.10,2013-02-22 18:23:00,
2013-02-22 13:38:00,34.0,33.0,29.92,ENE,61,2.0,6.0,96,0.00,,,0.00,weatherlink.com 1.10,2013-02-22 18:38:00,
2013-02-22 13:53:00,34.0,33.0,29.92,ENE,68,2.0,5.0,96,0.00,,,0.00,weatherlink.com 1.10,2013-02-22 18:53:00,
2013-02-22 14:08:00,34.2,33.0,29.92,ENE,65,0.0,7.0,96,0.00,,,0.00,weatherlink.com 1.10,2013-02-22 19:08:00,
2013-02-22 14:24:00,34.3,33.0,29.92,ENE,63,1.0,8.0,95,0.00,,,0.00,weatherlink.com 1.10,2013-02-22 19:24:00,
2013-02-22 14:39:00,34.3,33.0,29.92,ENE,72,0.0,5.0,95,0.00,,,0.00,weatherlink.com 1.10,2013-02-22 19:39:00,
2013-02-22 14:53:00,34.5,33.0,29.92,ENE,60,1.0,6.0,94,0.00,,,0.00,weatherlink.com 1.10,2013-02-22 19:53:00,
2013-02-22 15:08:00,34.8,33.0,29.92,NE,49,2.0,6.0,93,0.00,,,0.00,weatherlink.com 1.10,2013-02-22 20:08:00,
2013-02-22 15:23:00,34.9,33.0,29.92,ENE,60,1.0,7.0,92,0.00,,,0.00,weatherlink.com 1.10,2013-02-22 20:23:00,
2013-02-22 15:39:00,34.8,33.0,29.92,ENE,75,4.0,6.0,92,0.00,,,0.00,weatherlink.com 1.10,2013-02-22 20:39:00,
2013-02-22 15:53:00,34.9,33.0,29.93,NE,44,6.0,7.0,93,0.00,,,0.00,weatherlink.com 1.10,2013-02-22 20:53:00,
2013-02-22 16:08:00,35.7,34.0,29.93,ENE,61,5.0,7.0,92,0.01,,,0.01,weatherlink.com 1.10,2013-02-22 21:08:00,
2013-02-22 16:23:00,35.8,33.0,29.93,NE,53,2.0,7.0,89,0.02,,,0.02,weatherlink.com 1.10,2013-02-22 21:23:00,
2013-02-22 16:38:00,35.6,33.0,29.93,NE,47,3.0,6.0,89,0.02,,,0.02,weatherlink.com 1.10,2013-02-22 21:38:00,
2013-02-22 16:53:00,35.6,32.0,29.93,ENE,72,1.0,6.0,88,0.02,,,0.02,weatherlink.com 1.10,2013-02-22 21:53:00,
2013-02-22 17:08:00,35.7,33.0,29.93,NE,43,3.0,6.0,88,0.02,,,0.03,weatherlink.com 1.10,2013-02-22 22:08:00,
2013-02-22 17:23:00,35.4,32.0,29.93,ENE,65,2.0,5.0,88,0.01,,,0.03,weatherlink.com 1.10,2013-02-22 22:23:00,
2013-02-22 17:39:00,35.3,32.0,29.93,NE,56,1.0,4.0,88,0.01,,,0.03,weatherlink.com 1.10,2013-02-22 22:39:00,
2013-02-22 17:53:00,35.1,32.0,29.93,NE,37,1.0,4.0,89,0.01,,,0.03,weatherlink.com 1.10,2013-02-22 22:53:00,
2013-02-22 18:08:00,35.0,32.0,29.94,ENE,60,1.0,5.0,89,0.00,,,0.03,weatherlink.com 1.10,2013-02-22 23:08:00,
2013-02-22 18:24:00,35.0,32.0,29.95,ENE,78,1.0,6.0,89,0.01,,,0.04,weatherlink.com 1.10,2013-02-22 23:24:00,
2013-02-22 18:38:00,34.8,32.0,29.94,ENE,65,0.0,6.0,89,0.01,,,0.04,weatherlink.com 1.10,2013-02-22 23:38:00,
2013-02-22 18:53:00,34.8,32.0,29.95,ENE,77,1.0,3.0,89,0.01,,,0.04,weatherlink.com 1.10,2013-02-22 23:53:00,
2013-02-22 19:08:00,34.8,32.0,29.95,ENE,67,1.0,5.0,89,0.01,,,0.04,weatherlink.com 1.10,2013-02-23 00:08:00,
2013-02-22 19:39:00,34.7,32.0,29.95,ENE,58,2.0,3.0,90,0.00,,,0.04,weatherlink.com 1.10,2013-02-23 00:39:00,
2013-02-22 19:54:00,34.6,32.0,29.95,ENE,60,3.0,4.0,90,0.00,,,0.04,weatherlink.com 1.10,2013-02-23 00:54:00,
2013-02-22 20:09:00,34.7,32.0,29.95,ENE,68,0.0,6.0,89,0.00,,,0.04,weatherlink.com 1.10,2013-02-23 01:09:00,
2013-02-22 20:24:00,34.7,32.0,29.95,NE,43,2.0,8.0,89,0.00,,,0.04,weatherlink.com 1.10,2013-02-23 01:24:00,
2013-02-22 20:39:00,34.2,32.0,29.96,East,97,1.0,11.0,90,0.01,,,0.05,weatherlink.com 1.10,2013-02-23 01:39:00,
2013-02-22 20:54:00,32.9,31.0,29.96,East,99,0.0,6.0,92,0.01,,,0.05,weatherlink.com 1.10,2013-02-23 01:54:00,
2013-02-22 21:09:00,32.6,31.0,29.97,ENE,65,0.0,4.0,93,0.01,,,0.05,weatherlink.com 1.10,2013-02-23 02:09:00,
2013-02-22 21:24:00,32.5,31.0,29.97,East,93,0.0,6.0,92,0.01,,,0.05,weatherlink.com 1.10,2013-02-23 02:24:00,
2013-02-22 21:39:00,32.5,31.0,29.97,East,89,0.0,4.0,93,0.00,,,0.05,weatherlink.com 1.10,2013-02-23 02:39:00,
2013-02-22 21:54:00,32.2,30.0,29.97,East,89,1.0,6.0,93,0.00,,,0.05,weatherlink.com 1.10,2013-02-23 02:54:00,
2013-02-22 22:09:00,31.9,30.0,29.98,East,81,0.0,4.0,94,0.00,,,0.05,weatherlink.com 1.10,2013-02-23 03:09:00,
2013-02-22 22:24:00,31.8,30.0,29.98,ESE,105,1.0,6.0,94,0.00,,,0.05,weatherlink.com 1.10,2013-02-23 03:24:00,
2013-02-22 22:39:00,31.6,30.0,29.98,ENE,78,3.0,6.0,92,0.00,,,0.05,weatherlink.com 1.10,2013-02-23 03:39:00,
2013-02-22 22:54:00,31.4,29.0,29.99,East,84,1.0,6.0,91,0.00,,,0.05,weatherlink.com 1.10,2013-02-23 03:54:00,
2013-02-22 23:09:00,31.2,29.0,29.99,East,96,2.0,11.0,90,0.00,,,0.05,weatherlink.com 1.10,2013-02-23 04:09:00,
2013-02-22 23:24:00,31.1,28.0,29.99,East,87,1.0,8.0,89,0.00,,,0.05,weatherlink.com 1.10,2013-02-23 04:24:00,
2013-02-22 23:39:00,30.9,28.0,29.98,ESE,118,3.0,6.0,88,0.00,,,0.05,weatherlink.com 1.10,2013-02-23 04:39:00,
2013-02-22 23:54:00,30.8,28.0,29.98,NE,42,4.0,6.0,88,0.00,,,0.05,weatherlink.com 1.10,2013-02-23 04:54:00,